AirNav   TITAN Aviation Fuels
 
 472 users online  

C01 Southern Cross Airport
Williamstown, New Jersey, USA

GOING TO WILLIAMSTOWN?


FAA INFORMATION EFFECTIVE 30 DECEMBER 2021

Location

FAA Identifier: C01
Lat/Long: 39-39-20.0000N 075-00-52.0000W
39-39.333333N 075-00.866667W
39.6555556,-75.0144444
(estimated)
Elevation: 145 ft. / 44 m (estimated)
Variation: 12W (1995)
From city: 3 miles SW of WILLIAMSTOWN, NJ
Time zone: UTC -5 (UTC -4 during Daylight Saving Time)
Zip code: 08094

Airport Operations

Airport use: Open to the public
Activation date: 08/1997
Control tower: no
ARTCC: NEW YORK CENTER
FSS: MILLVILLE FLIGHT SERVICE STATION
NOTAMs facility: MIV (NOTAM-D service available)
Attendance: DAYLIGHT HOURS
Wind indicator: yes
Segmented circle: no

Airport Communications

CTAF: 122.9
WX AWOS-AV at N81 (12 nm E): 122.7
WX ASOS at PHL (17 nm NW): PHONE 215-492-9617
WX ASOS at MIV (17 nm S): 119.6 (856-327-3455)
WX ASOS at VAY (19 nm NE): 119.325 (609-267-1176)

Nearby radio navigation aids

VOR radial/distance  VOR name  Freq  Var
VCNr353/7.4CEDAR LAKE VOR/DME115.2010W
OODr095/13.4WOODSTOWN VORTAC112.8010W
ACYr311/23.5ATLANTIC CITY VORTAC108.6010W
DQOr103/27.4DUPONT VORTAC114.0010W
CYNr260/28.6COYLE VORTAC113.4010W
GXUr234/28.7MC GUIRE VORTAC110.6012W
MXEr126/34.1MODENA VORTAC113.2009W
ENOr051/34.5SMYRNA VORTAC111.4009W
SIEr353/35.0SEA ISLE VORTAC114.8009W
ARDr198/36.2YARDLEY VOR/DME108.2010W

 
NDB name  Hdg/Dist  Freq  Var  ID
RAINBOW032/15.336311WRNB .-. -. -...
AMBLER168/30.927512WING .. -. --.
LAKEHURST244/39.039611WNEL -. . .-..

Airport Services

Parking: tiedowns
Airframe service: NONE
Powerplant service: NONE

Runway Information

Runway 9/27

Dimensions: 2400 x 80 ft. / 732 x 24 m
Surface: turf, in good condition
RUNWAY 9  RUNWAY 27
Traffic pattern: leftleft
Obstructions: 33 ft. pline, marked, 50 ft. from runway, 1:1 slope to clear
P-LINE MARKED WITH ORANGE BALLS.
57 ft. tree, 20 ft. from runway, 86 ft. left of centerline

Airport Ownership and Management from official FAA records

Ownership: Privately-owned
Owner: EDWARD A. CARTER
256 SOUTH TUCKAHOE RD
WILLIAMSTOWN, NJ 08094
Phone (609) 820-7987
Manager: EDWARD A CARTER
256 SOUTH TUCKAHOE RD
WILLIAMSTOWN, NJ 08094
Phone (609) 820-7987

Airport Operational Statistics

Aircraft based on the field: 2
Single engine airplanes: 2
    
Aircraft operations: avg 21/month *
86% local general aviation
14% transient general aviation
* for 12-month period ending 02 May 2019

Additional Remarks

FOR CD CTC PHILADELPHIA APCH AT 800-354-9884
DEER & BIRDS ON & INVOF ARPT.

Instrument Procedures

There are no published instrument procedures at C01.

Some nearby airports with instrument procedures:

17N - Cross Keys Airport (3 nm N)
19N - Camden County Airport (8 nm NE)
29N - Kroelinger Airport (8 nm S)
N81 - Hammonton Municipal Airport (12 nm E)
KPHL - Philadelphia International Airport (17 nm NW)
KMIV - Millville Municipal Airport (17 nm S)
7N7 - Spitfire Aerodrome (18 nm W)
KVAY - South Jersey Regional Airport (19 nm NE)
N14 - Flying W Airport (19 nm NE)
 
Loc | Ops | Rwys | IFR | FBO | Links
Com | Nav | Svcs | Stats | Notes
Area around C01 (Southern Cross Airport)
 
Road maps at: MapQuest Bing Google
 
Aerial photo
WARNING: Photo may not be current or correct
Aerial photo of C01 (Southern Cross Airport)
Do you have a better or more recent aerial photo of Southern Cross Airport that you would like to share? If so, please send us your photo.

 
Sectional chart

 
Airport distance calculator
Flying to Southern Cross Airport? Find the distance to fly.

From to C01

Sunrise and sunset
Times for 18-Jan-2022
 Local
(UTC-5)
 Zulu
(UTC)
Morning civil twilight06:5011:50
Sunrise07:1912:19
Sunset17:0222:02
Evening civil twilight17:3222:32

Current date and time
Zulu (UTC)  18-Jan-2022 06:09:22
Local (UTC-5)  18-Jan-2022 01:09:22
 
METAR
KPHL 
16nm NW 
180554Z 29016G23KT 10SM FEW048 02/M10 A2962 RMK AO2 PK WND 29029/0527 SLP030 T00171100 10028 20017 53041 $
KMIV 
18nm S 
180554Z AUTO 29013G19KT 10SM CLR 00/M08 A2963 RMK AO2 SLP034 T00001078 10017 20000 51036
KVAY 
19nm NE 
ASOS 119.325 609-267-1176
180554Z AUTO 28012G23KT 260V320 10SM FEW046 01/M08 A2959 RMK AO2 PK WND 29027/0501 SLP021 T00111083 10022 20011 53041 $
KACY 
23nm SE 
180554Z AUTO 28018G30KT 10SM BKN046 01/M07 A2958 RMK AO2 PK WND 29034/0542 SLP017 T00111072 10017 20011 51033 TSNO
KPNE 
26nm N 
180554Z 29015G23KT 10SM CLR 00/M09 A2960 RMK AO2 PK WND 29030/0522 SLP024 T00001094 10017 20000 53040
KILG 
27nm W 
180551Z AUTO 29020G24KT 10SM CLR 01/M09 A2964 RMK AO2 PK WND 29028/0523 SLP037 T00061089 10017 20006 51038 $
KWRI 
29nm NE 
180556Z 28015G26KT 10SM FEW046 01/M08 A2955 RMK AO2A PK WND 29031/39 SLP007 T00051077 10016 20005 52036 $
KLOM 
31nm N 
180555Z AUTO 30012G22KT 10SM CLR M01/M10 A2960 RMK AO2 T10061101 10008 21007
TAF
KPHL 
16nm NW 
180524Z 1806/1912 30016G26KT P6SM SCT050 BKN100 FM181400 29014G22KT P6SM BKN050 FM182200 27010KT P6SM BKN200 FM190200 27005KT P6SM BKN200
KMIV 
18nm S 
180524Z 1806/1906 28015G25KT P6SM OVC050 FM181000 28012G22KT P6SM SCT050 BKN100 FM181500 29014G26KT P6SM BKN050 FM182300 27008KT P6SM BKN250 FM190100 28004KT P6SM SCT250
NOTAMs
Click for the latest NOTAMs
NOTAMs are issued by the DoD/FAA and will open in a separate window not controlled by AirNav.

 

 
 

Would you like to see your business listed on this page?

 If your business provides an interesting product or service to pilots, flight crews, aircraft, or users of the Southern Cross Airport, you should consider listing it here.  To start the listing process, click on the button below
 
Add a business
 

Other Pages about Southern Cross Airport

Update a link
 
Copyright © AirNav, LLC. All rights reserved. Privacy Policy  Contact